TimeCST,TemperatureF,Dew PointF,Humidity,Sea Level PressureIn,VisibilityMPH,Wind Direction,Wind SpeedMPH,Gust SpeedMPH,PrecipitationIn,Events,Conditions,WindDirDegrees,DateUTC
12:15 AM,55.4,55.4,100,30.08,5.0,Calm,Calm,-,N/A,,Clear,0,2012-11-05 06:15:00
12:35 AM,55.4,55.4,100,30.09,5.0,Calm,Calm,-,N/A,,Clear,0,2012-11-05 06:35:00
12:55 AM,55.4,55.4,100,30.09,7.0,Calm,Calm,-,N/A,,Clear,0,2012-11-05 06:55:00
1:15 AM,53.6,53.6,100,30.09,5.0,Calm,Calm,-,N/A,,Clear,0,2012-11-05 07:15:00
1:35 AM,53.6,53.6,100,30.08,5.0,Calm,Calm,-,N/A,,Clear,0,2012-11-05 07:35:00
1:55 AM,53.6,53.6,100,30.08,5.0,Calm,Calm,-,N/A,,Clear,0,2012-11-05 07:55:00
2:15 AM,53.6,53.6,100,30.07,3.0,Calm,Calm,-,N/A,,Clear,0,2012-11-05 08:15:00
2:35 AM,53.6,53.6,100,30.07,1.2,Calm,Calm,-,N/A,,Clear,0,2012-11-05 08:35:00
2:55 AM,51.8,51.8,100,30.06,5.0,Calm,Calm,-,N/A,,Clear,0,2012-11-05 08:55:00
3:15 AM,51.8,51.8,100,30.06,5.0,Calm,Calm,-,N/A,,Clear,0,2012-11-05 09:15:00
3:35 AM,51.8,51.8,100,30.06,5.0,Calm,Calm,-,N/A,,Scattered Clouds,0,2012-11-05 09:35:00
3:55 AM,51.8,51.8,100,30.06,0.5,Calm,Calm,-,N/A,Fog,Fog,0,2012-11-05 09:55:00
4:15 AM,51.8,51.8,100,30.06,0.2,Calm,Calm,-,N/A,Fog,Fog,0,2012-11-05 10:15:00
4:35 AM,51.8,51.8,100,30.06,0.2,Calm,Calm,-,N/A,Fog,Fog,0,2012-11-05 10:35:00
4:55 AM,51.8,51.8,100,30.06,0.2,Calm,Calm,-,N/A,Fog,Fog,0,2012-11-05 10:55:00
5:35 AM,51.8,51.8,100,30.06,0.2,Calm,Calm,-,N/A,Fog,Fog,0,2012-11-05 11:35:00
5:55 AM,50.0,50.0,100,30.06,0.8,Calm,Calm,-,N/A,,Overcast,0,2012-11-05 11:55:00
6:15 AM,50.0,50.0,100,30.06,0.2,Calm,Calm,-,N/A,Fog,Fog,0,2012-11-05 12:15:00
6:35 AM,50.0,50.0,100,30.06,0.2,Calm,Calm,-,N/A,Fog,Fog,0,2012-11-05 12:35:00
6:55 AM,50.0,50.0,100,30.07,0.2,Calm,Calm,-,N/A,Fog,Fog,0,2012-11-05 12:55:00
7:15 AM,50.0,50.0,100,30.07,0.2,Calm,Calm,-,N/A,Fog,Fog,0,2012-11-05 13:15:00
7:35 AM,51.8,51.8,100,30.07,0.2,Calm,Calm,-,N/A,Fog,Fog,0,2012-11-05 13:35:00
7:55 AM,51.8,51.8,100,30.07,0.2,Calm,Calm,-,N/A,Fog,Fog,0,2012-11-05 13:55:00
8:15 AM,55.4,55.4,100,30.07,0.2,Calm,Calm,-,N/A,Fog,Fog,0,2012-11-05 14:15:00
8:35 AM,55.4,55.4,100,30.08,3.0,Calm,Calm,-,N/A,,Overcast,0,2012-11-05 14:35:00
8:55 AM,57.2,57.2,100,30.08,4.0,Calm,Calm,-,N/A,,Overcast,0,2012-11-05 14:55:00
9:15 AM,57.2,57.2,100,30.07,4.0,WSW,4.6,-,N/A,,Overcast,250,2012-11-05 15:15:00
9:35 AM,59.0,59.0,100,30.07,3.0,Calm,Calm,-,N/A,,Overcast,0,2012-11-05 15:35:00
9:55 AM,60.8,60.8,100,30.08,4.0,WNW,4.6,-,N/A,,Overcast,290,2012-11-05 15:55:00
10:15 AM,60.8,60.8,100,30.07,5.0,West,4.6,-,N/A,,Mostly Cloudy,260,2012-11-05 16:15:00
10:35 AM,62.6,59.0,88,30.07,5.0,West,8.1,-,N/A,,Partly Cloudy,280,2012-11-05 16:35:00
10:55 AM,64.4,57.2,77,30.06,8.0,West,4.6,-,N/A,,Clear,280,2012-11-05 16:55:00
11:15 AM,66.2,57.2,73,30.06,8.0,West,8.1,-,N/A,,Clear,280,2012-11-05 17:15:00
11:35 AM,68.0,55.4,64,30.05,9.0,West,8.1,-,N/A,,Partly Cloudy,280,2012-11-05 17:35:00
11:55 AM,69.8,55.4,60,30.04,10.0,NW,9.2,-,N/A,,Partly Cloudy,310,2012-11-05 17:55:00
12:15 PM,69.8,53.6,56,30.04,9.0,NW,8.1,-,N/A,,Clear,310,2012-11-05 18:15:00
12:35 PM,71.6,53.6,53,30.03,10.0,NW,12.7,-,N/A,,Clear,320,2012-11-05 18:35:00
12:55 PM,71.6,48.2,43,30.02,10.0,NW,12.7,19.6,N/A,,Clear,310,2012-11-05 18:55:00
1:15 PM,71.6,48.2,43,30.01,10.0,NNW,13.8,20.7,N/A,,Clear,330,2012-11-05 19:15:00
1:35 PM,71.6,48.2,43,30.01,10.0,NNW,12.7,-,N/A,,Clear,340,2012-11-05 19:35:00
1:55 PM,73.4,46.4,38,30.00,10.0,NNW,11.5,18.4,N/A,,Clear,340,2012-11-05 19:55:00
2:15 PM,73.4,46.4,38,30.00,10.0,NW,11.5,-,N/A,,Clear,320,2012-11-05 20:15:00
2:35 PM,73.4,44.6,36,30.01,10.0,NNW,13.8,-,N/A,,Partly Cloudy,330,2012-11-05 20:35:00
2:55 PM,73.4,44.6,36,30.01,10.0,North,12.7,17.3,N/A,,Clear,350,2012-11-05 20:55:00
3:15 PM,73.4,44.6,36,30.01,10.0,NW,12.7,-,N/A,,Clear,310,2012-11-05 21:15:00
3:35 PM,71.6,44.6,38,30.00,10.0,NW,8.1,-,N/A,,Clear,320,2012-11-05 21:35:00
3:55 PM,73.4,44.6,36,30.00,10.0,NW,6.9,-,N/A,,Clear,310,2012-11-05 21:55:00
4:15 PM,71.6,44.6,38,30.00,9.0,NW,6.9,-,N/A,,Clear,320,2012-11-05 22:15:00
4:35 PM,71.6,44.6,38,30.00,10.0,NW,5.8,-,N/A,,Clear,310,2012-11-05 22:35:00
4:55 PM,69.8,39.2,33,30.00,10.0,NW,10.4,-,N/A,,Clear,320,2012-11-05 22:55:00
5:15 PM,68.0,39.2,35,30.01,10.0,NW,5.8,-,N/A,,Clear,320,2012-11-05 23:15:00
5:35 PM,66.2,39.2,37,30.01,10.0,Calm,Calm,-,N/A,,Clear,0,2012-11-05 23:35:00
5:55 PM,64.4,44.6,49,30.01,10.0,Calm,Calm,-,N/A,,Clear,0,2012-11-05 23:55:00
6:15 PM,60.8,44.6,55,30.01,10.0,West,3.5,-,N/A,,Clear,260,2012-11-06 00:15:00
6:35 PM,62.6,41.0,45,30.02,10.0,WNW,5.8,-,N/A,,Clear,300,2012-11-06 00:35:00
6:55 PM,62.6,39.2,42,30.03,10.0,NW,6.9,-,N/A,,Clear,320,2012-11-06 00:55:00
7:15 PM,62.6,37.4,39,30.04,10.0,NW,8.1,-,N/A,,Clear,320,2012-11-06 01:15:00
7:35 PM,62.6,35.6,37,30.05,10.0,NW,6.9,-,N/A,,Clear,320,2012-11-06 01:35:00
7:55 PM,60.8,33.8,36,30.05,10.0,NW,6.9,-,N/A,,Clear,320,2012-11-06 01:55:00
8:15 PM,60.8,33.8,36,30.06,10.0,NNW,3.5,-,N/A,,Clear,330,2012-11-06 02:15:00
8:35 PM,60.8,37.4,42,30.06,10.0,WNW,3.5,-,N/A,,Clear,300,2012-11-06 02:35:00
8:55 PM,57.2,37.4,48,30.07,10.0,Calm,Calm,-,N/A,,Clear,0,2012-11-06 02:55:00
9:15 PM,57.2,35.6,44,30.07,10.0,NNW,5.8,-,N/A,,Clear,330,2012-11-06 03:15:00
9:35 PM,57.2,35.6,44,30.08,10.0,NNW,5.8,-,N/A,,Clear,330,2012-11-06 03:35:00
9:55 PM,57.2,35.6,44,30.08,10.0,NW,6.9,-,N/A,,Clear,320,2012-11-06 03:55:00
10:15 PM,55.4,37.4,51,30.09,10.0,NNW,8.1,-,N/A,,Clear,330,2012-11-06 04:15:00
10:35 PM,55.4,39.2,54,30.09,10.0,NNW,5.8,-,N/A,,Clear,340,2012-11-06 04:35:00
10:55 PM,55.4,41.0,58,30.10,10.0,NNW,5.8,-,N/A,,Clear,330,2012-11-06 04:55:00
11:15 PM,55.4,41.0,58,30.10,10.0,NNW,6.9,-,N/A,,Clear,330,2012-11-06 05:15:00
11:35 PM,53.6,41.0,62,30.10,10.0,NW,8.1,-,N/A,,Clear,320,2012-11-06 05:35:00
11:55 PM,53.6,42.8,67,30.10,10.0,NNW,8.1,-,N/A,,Clear,330,2012-11-06 05:55:00